Location: Kerb�bon
(47.7970°N, 3.3487°W)
Time: 12:56:15
(UTC+00:00)

Cosmos 1908 Rocket - Pass Details

Date: 12 May 2021
Orbit: 606 x 632 km, 82.5° (Epoch: 18 June)

Event Time Altitude Azimuth Distance (km) Brightness Sun altitude
Rises 23:30:01 0° 349° (N) 2,940 8.5 -23.2°
Reaches altitude 10° 23:32:16 10° 349° (NNW) 2,027 7.3 -23.3°
Maximum altitude 23:36:46 81° 263° (W) 646 3.5 -23.4°
Enters shadow 23:37:00 77° 217° (SW) 654 3.4 -23.4°
